To NAV CANADA Home Page Login to a new session Search on AWWS site Feedback and Comments Disclaimer Vers la page française équivalente Tips FAQ What's new on the site To the Forecasts and Observations / NOTAM section To "File a Flight Plan" website Publications and other links Update of the User's profile FIC Telephone Numbers My Weather Data Folder Route Weather Data Regional Weather Data Local Weather Data To the Forecasts and Observations / NOTAM section
Request Generated 01/17/2017 at 04:53:25 UTC . Weather information available at that time is displayed.

METAR/TAF

ST. LEONARD/NB    

LWIS CYSL 170400Z AUTO 29004KT M06/M07 A2997=
LWIS CYSL 170300Z AUTO 27004KT M05/M07 A2996=
LWIS CYSL 170200Z AUTO 27006KT M05/M07 A2995=

CYSL - No TAF is issued for this station

Your time UTC time
Weather data provided by Environment Canada and NAV CANADA